Home   Weather   Ajmer   Past weeks

Flag for India Past Weather in Ajmer, Rajasthan, India — Yesterday and Last 2 Weeks

Now
97 °F

Haze.


Feels Like: 92 °F
Forecast: 77 / 102 °F
Wind: 8 mph from North

Location: Jaipur / Sanganer

Current Time: May 1, 2017 at 12:06:23 pm

Latest Report: May 1, 2017 at 11:30 am


Visibility: 3 mi

Pressure: 29.89 "Hg

Humidity: 11%

Dew Point: 34 °F

Location of AjmerLocation

Past Weather in Ajmer — Graph

°F

Ajmer Temperature Yesterday

Maximum temperature yesterday: 102 °F (at 4:00 pm)
Minimum temperature yesterday: 81 °F (at 6:00 am)
Average temperature yesterday: 92 °F

High & Low Weather Summary for the Past Weeks

 TemperatureHumidityPressure
High109 °F (Apr 16, 4:00 pm)61% (Apr 26, 6:00 am)29.89 "Hg (Apr 26, 6:00 am)
Low72 °F (Apr 26, 5:30 am)3% (Apr 16, 4:00 pm)29.56 "Hg (Apr 20, 4:00 pm)
Average93 °F19%29.75 "Hg
* Reported Apr 16 10:30 am — May 1 10:30 am, Ajmer, Weather by CustomWeather, © 2017

Note: Actual official high and low records may vary slightly from our data, if they occured in-between our weather recording intervals... More about our weather records

Advertising

Ajmer Weather History for the Previous 24 Hours

Scroll right to see more
 ConditionsComfort  
Time TempWeatherWind HumidityBarometerVisibility
10:30 am
Mon, May 1
95 °FHaze.12 mph14%29.89 "Hg3 mi
10:00 am91 °FHaze.9 mph20%29.89 "Hg3 mi
9:30 am91 °FHaze.12 mph23%29.89 "Hg3 mi
9:00 am90 °FHaze.9 mph26%29.89 "Hg2 mi
8:30 am88 °FHaze.10 mph27%29.86 "Hg2 mi
8:00 am88 °FHaze.9 mph27%29.86 "Hg2 mi
7:30 am84 °FHaze.7 mph33%29.86 "Hg2 mi
6:30 am82 °FHaze.3 mph35%29.80 "Hg2 mi
6:00 am84 °FHaze.6 mph31%29.80 "Hg2 mi
5:30 am84 °FHaze.109 mph31%29.80 "Hg2 mi
5:00 am86 °FHaze.6 mph29%29.80 "Hg2 mi
4:30 am86 °FHaze.7 mph29%29.77 "Hg2 mi
3:00 am88 °FHaze.13 mph27%29.77 "Hg2 mi
2:30 am88 °FHaze.10 mph25%29.77 "Hg2 mi
2:00 am88 °FHaze.8 mph25%29.77 "Hg2 mi
1:30 am88 °FHaze.10 mph24%29.77 "Hg2 mi
1:00 am90 °FHaze.10 mph21%29.77 "Hg2 mi
12:30 am90 °FHaze.10 mph20%29.77 "Hg2 mi
12:00 am90 °FHaze.12 mph20%29.77 "Hg2 mi
11:30 pm
Sun, Apr 30
91 °FHaze.10 mph17%29.77 "Hg2 mi
11:00 pm91 °FHaze.8 mph17%29.77 "Hg2 mi
10:30 pm93 °FHaze.7 mph12%29.77 "Hg2 mi
10:00 pm93 °FHaze.5 mph13%29.77 "Hg2 mi
9:30 pm93 °FHaze.3 mph13%29.77 "Hg2 mi
9:00 pm95 °FHaze.5 mph11%29.74 "Hg3 mi
8:30 pm93 °FHaze.6 mph12%29.74 "Hg3 mi
8:00 pm93 °FHaze.3 mph12%29.74 "Hg3 mi
7:30 pm95 °FHaze.5 mph10%29.71 "Hg3 mi
7:00 pm97 °FHaze.8 mph9%29.71 "Hg3 mi
6:30 pm99 °FHaze.10 mph8%29.71 "Hg3 mi
6:00 pm99 °FHaze.9 mph8%29.71 "Hg3 mi
5:30 pm100 °FSunny.10 mph7%29.71 "Hg3 mi
5:00 pm100 °FHaze.8 mph7%29.71 "Hg3 mi
4:30 pm102 °FHaze.13 mph6%29.71 "Hg3 mi
4:00 pm102 °FScattered clouds.14 mph7%29.71 "Hg3 mi
3:30 pm100 °FScattered clouds.9 mph8%29.71 "Hg3 mi
3:00 pm100 °FScattered clouds.6 mph12%29.74 "Hg3 mi
2:30 pm99 °FScattered clouds.5 mph15%29.74 "Hg3 mi
2:00 pm99 °FScattered clouds.10 mph14%29.77 "Hg3 mi
1:30 pm99 °FHaze.8 mph12%29.77 "Hg3 mi
1:00 pm97 °FHaze.7 mph16%29.80 "Hg3 mi
12:30 pm99 °FHaze.6 mph18%29.80 "Hg3 mi
12:00 pm95 °FHaze.5 mph22%29.83 "Hg3 mi
Weather by CustomWeather, © 2017

See weather overviewHow to use our weather pages